Location: Albany
(35.0000°S, 118.0000°E)
Time: 15:03:20
(UTC-05:00)

ISS - All Passes

Search period start: 06 March 2015 00:00
Search period end: 16 March 2015 01:00
Orbit: 396 x 408 km, 51.6° (Epoch: 06 March)

Date Brightness Start Highest point End Pass type
(mag) Time Alt. Az. Time Alt. Az. Time Alt. Az.
06 Mar - 05:44:15 10° NNW 05:47:23 41° NE 05:50:35 10° ESE daylight
06 Mar - 07:21:27 10° W 07:24:00 19° SSW 07:26:31 10° SSE visible
06 Mar - 12:15:10 10° S 12:17:18 16° SSE 12:19:28 10° ESE night (unlit)
06 Mar - 13:50:44 10° SW 13:54:03 60° NW 13:57:18 10° NE night (unlit)
07 Mar - 04:52:11 10° N 04:54:36 19° NE 04:57:07 10° E daylight
07 Mar - 06:27:50 10° WNW 06:30:54 33° SW 06:34:00 10° SSE visible
07 Mar - 11:23:26 10° SSE 11:24:04 10° SSE 11:24:47 10° SE night (unlit)
07 Mar - 12:57:49 10° SW 13:01:08 60° SE 13:04:25 10° ENE night (unlit)
07 Mar - 14:36:39 10° WNW 14:37:13 10° NW 14:37:38 10° NW night (unlit)
08 Mar - 06:34:35 10° NW 06:37:53 68° SW 06:41:15 10° SE daylight
08 Mar - 08:13:48 10° SW 08:14:54 11° SSW 08:15:57 10° S visible
08 Mar - 13:05:04 10° SSW 13:08:06 30° SE 13:11:06 10° E night (unlit)
08 Mar - 14:41:46 10° WSW 14:44:26 22° NW 14:47:01 10° N night (unlit)
09 Mar - 05:41:43 10° NNW 05:44:56 52° NE 05:48:14 10° ESE daylight
09 Mar - 07:19:19 10° WSW 07:21:38 17° SSW 07:23:55 10° SSE visible
09 Mar - 12:12:33 10° SSW 12:14:55 18° SSE 12:17:20 10° ESE night (unlit)
09 Mar - 13:48:19 10° WSW 13:51:34 47° NW 13:54:45 10° NNE night (unlit)
10 Mar - 04:49:21 10° N 04:52:03 24° NE 04:54:49 10° ESE daylight
10 Mar - 06:25:28 10° W 06:28:25 28° SW 06:31:23 10° SSE daylight
10 Mar - 11:20:23 10° S 11:21:37 12° SSE 11:22:56 10° SE night (unlit)
10 Mar - 12:55:14 10° SW 12:58:35 75° SE 13:01:54 10° NE night (unlit)
11 Mar - 03:58:11 10° NE 03:59:11 11° NE 04:00:19 10° ENE daylight
11 Mar - 05:32:01 10° WNW 05:35:18 55° SW 05:38:36 10° SE daylight
11 Mar - 12:02:21 10° SSW 12:05:29 35° SE 12:08:36 10° ENE night (unlit)
11 Mar - 13:39:22 10° W 13:41:45 18° NW 13:44:02 10° N night (unlit)
12 Mar - 04:38:57 10° NW 04:42:13 66° NE 04:45:33 10° SE daylight
12 Mar - 06:16:55 10° WSW 06:19:00 15° SSW 06:21:01 10° S daylight
12 Mar - 11:09:40 10° SSW 11:12:15 20° SSE 11:14:51 10° E night (unlit)
12 Mar - 12:45:40 10° WSW 12:48:48 38° NW 12:51:54 10° NNE night (unlit)
13 Mar - 03:46:21 10° NNW 03:49:13 29° NE 03:52:11 10° ESE daylight
13 Mar - 05:22:52 10° W 05:25:40 24° SSW 05:28:29 10° SSE daylight
13 Mar - 10:17:15 10° S 10:18:53 13° SSE 10:20:34 10° SE night (unlit)
13 Mar - 11:52:24 10° SW 11:55:46 88° NW 11:59:05 10° NE night (unlit)
14 Mar - 02:54:34 10° NNE 02:56:15 14° NE 02:58:04 10° E daylight
14 Mar - 04:29:13 10° WNW 04:32:25 45° SW 04:35:39 10° SE daylight
14 Mar - 10:59:23 10° SW 11:02:36 42° SE 11:05:47 10° ENE night (unlit)
14 Mar - 12:36:47 10° W 12:38:47 15° NW 12:40:41 10° NNW night (unlit)
15 Mar - 03:35:57 10° NW 03:39:14 82° NE 03:42:35 10° SE daylight
15 Mar - 05:14:18 10° WSW 05:16:05 13° SSW 05:17:49 10° S daylight
15 Mar - 10:06:33 10° SSW 10:09:18 23° SSE 10:12:04 10° E night (unlit)
15 Mar - 11:42:45 10° WSW 11:45:46 31° NW 11:48:44 10° NNE night (unlit)
